AMOS-17

Last updated on Mon Dec 15 2025 00:02:57 GMT+0000 (Coordinated Universal Time)

1 44479U 19050A 25348.27715682 .00000127 00000+0 00000+0 0 9991 2 44479 0.0184 356.6110 0001401 260.5402 302.8090 1.00272008 23333
UTC large
Height (km)
Speed (km/s)
/
Latitude / Longitude
Inclination (degrees)
Orbital Period (minutes)
Azimuth
Elevation
Range (km)
Doppler Factor

Next 0 passes for location: London (51.5072 / 0.1276)

Sorry there are no passes over London.